Location: Pf�ffikon
(47.2015°N, 8.7809°E)
Time: 03:00:32
(UTC+00:00)

NPP - Pass Details

Date: 07 June 2020
Orbit: 826 x 828 km, 98.7° (Epoch: 09 July)

Event Time Altitude Azimuth Distance (km) Brightness Sun altitude
Rises 01:11:06 0° 15° (NNE) 3,379 8.5 -16.0°
Reaches altitude 10° 01:13:29 10° 17° (NNE) 2,441 7.4 -15.8°
Maximum altitude 01:18:54 77° 104° (ESE) 852 3.7 -15.4°
Enters shadow 01:22:35 21° 188° (S) 1,778 4.8 -15.1°
